Location: Brantley
(31.5822°N, 86.2569°W)
Time: 06:38:48
(UTC+00:00)

Vanguard 2 - Pass Details

Date: 17 February 2026
Orbit: 553 x 2896 km, 32.9° (Epoch: 9 March)

Event Time Altitude Azimuth Distance (km) Brightness Sun altitude
Rises 16:38:22 0° 278° (W) 2,731 10.1 42.5°
Reaches altitude 10° 16:40:30 10° 270° (W) 1,894 9.5 42.7°
Maximum altitude 16:44:24 39° 200° (SSW) 1,014 9.3 43.1°
Drops below altitude 10° 16:49:36 10° 133° (SE) 2,535 11.1 43.5°
Sets 16:52:54 0° 126° (SE) 3,813 11.7 43.8°
